This is the latest recevied weather packets stored in our database for station/object KO4DYK. If no packets are shown the sender has not sent any weather packets the latest 10 day(s).
| Time | Temp. | Humidity | Pressure | Rain* | Wind** | Luminosity | Snow |
|---|---|---|---|---|---|---|---|
| 1777563362 | 16.11° C | 57% | 1021.5 hPa | 0 mm | - | 462 W/m² | - |
| 1777563058 | 16.11° C | 56% | 1021.5 hPa | 0 mm | - | 506 W/m² | - |
| 1777562754 | 15.56° C | 57% | 1021.6 hPa | 0 mm | - | 367 W/m² | - |
| 1777562453 | 15.56° C | 56% | 1021.5 hPa | 0 mm | - | 460 W/m² | - |
| 1777562150 | 15.56° C | 58% | 1021.4 hPa | 0 mm | - | 383 W/m² | - |
| 1777561847 | 15.56° C | 56% | 1021.4 hPa | 0 mm | - | 468 W/m² | - |
| 1777561544 | 15.56° C | 58% | 1021.4 hPa | 0 mm | - | 392 W/m² | - |
| 1777561239 | 15.56° C | 58% | 1021.5 hPa | 0 mm | - | 361 W/m² | - |
| 1777560938 | 15.56° C | 58% | 1021.4 hPa | 0 mm | - | 428 W/m² | - |
| 1777560635 | 15.56° C | 59% | 1021.4 hPa | 0 mm | - | 570 W/m² | - |
| 1777560333 | 15.56° C | 59% | 1021.6 hPa | 0 mm | - | 586 W/m² | - |
| 1777560031 | 15.56° C | 60% | 1021.5 hPa | 0 mm | - | 478 W/m² | - |
| 1777559726 | 15.56° C | 62% | 1021.5 hPa | 0 mm | - | 442 W/m² | - |
| 1777559424 | 15.56° C | 64% | 1021.4 hPa | 0 mm | - | 543 W/m² | - |
| 1777559121 | 15° C | 66% | 1021.4 hPa | 0 mm | - | 490 W/m² | - |
| 1777558821 | 15° C | 64% | 1021.6 hPa | 0 mm | - | 463 W/m² | - |
| 1777558516 | 15° C | 65% | 1021.4 hPa | 0 mm | - | 394 W/m² | - |
| 1777558213 | 14.44° C | 67% | 1021.4 hPa | 0 mm | - | 369 W/m² | - |
| 1777557909 | 13.89° C | 67% | 1021.3 hPa | 0 mm | - | 357 W/m² | - |
| 1777557606 | 14.44° C | 68% | 1021.2 hPa | 0 mm | - | 379 W/m² | - |
| 1777557302 | 13.89° C | 70% | 1021.4 hPa | 0 mm | - | 359 W/m² | - |
| 1777556999 | 13.89° C | 72% | 1021.3 hPa | 0 mm | - | 333 W/m² | - |
| 1777556694 | 13.89° C | 72% | 1021.4 hPa | 0 mm | - | 265 W/m² | - |
| 1777556391 | 13.89° C | 74% | 1021.5 hPa | 0 mm | - | 278 W/m² | - |
| 1777556086 | 13.33° C | 76% | 1021.5 hPa | 0 mm | - | 269 W/m² | - |
* Rain latest hour (hover to see other rain measurements)
** Current wind speed in m/s (hover to see current wind gust speed)